TIMESTAMP,CO2_1_1_1,H2O_1_1_1,TAU_1_1_1,TAU_SSITC_TEST_1_1_1,H_1_1_1,H_SSITC_TEST_1_1_1,LE_1_1_1,LE_SSITC_TEST_1_1_1,FC_1_1_1,FC_SSITC_TEST_1_1_1,WD_0_0_1,WS_0_0_1,WS_MAX_0_0_1,U_SIGMA_0_0_1,V_SIGMA_0_0_1,W_SIGMA_0_0_1,USTAR_0_0_1,MO_LENGTH_0_0_1,ZL_0_0_1,FETCH_MAX_0_0_1,FETCH_70_0_0_1,FETCH_80_0_0_1,FETCH_90_0_0_1,PA_0_0_1,RH_0_0_1,TA_0_0_1,VPD_0_0_1,T_SONIC_0_0_1,T_SONIC_SIGMA_0_0_1
[yyyymmddHHMMSS],[mmolCO2 mol-1],[mmolH2O mol-1],[kg m-1 s-2],[#],[W m-2],[#],[W m-2],[#],[umolCO2 m-2 s-1],[#],[Decimal degrees],[m s-1],[m s-1],[m s-1],[m s-1],[m s-1],[m s-1],[m],[#],[m],[m],[m],[m],[kPa],[%],[deg C],[hPa],[deg C],[deg C]
20220606003000,421.24997180689707,13.138315315460529,1.6476249073163345E-002,0,-8.9477699682695597,0,30.141317918930369,0,-0.55098880807617656,2,114.26226475246010,1.8167616618956715,2.9396718605184291,0.36311588797439004,0.34959812918902028,0.23547629866248221,0.12079657489850713,16.356114071200690,1.1616451143156661,317.03061466792906,3033.0000000000000,5618.0000000000000,-9999.,93.260848197379303,81.196551724137933,13.165517241379291,2.8382812926862950,13.657814444819223,0.53375343330745950
20220606010000,423.09125046255701,13.422316949316887,0.33538124104977463,1,-35.224871600976350,1,114.41294100555039,1,9.2190294978368428,1,141.29624318296425,0.66645622477059219,4.4410693717610901,1.4785279424467344,1.3479144849968030,0.25964788452559623,0.54487283552003707,381.29849831372792,4.9829726799414310E-002,226.55997830821306,414.22389794642112,495.72021158214636,620.58288060061273,93.254252106336793,83.941333333333333,12.983000000000004,2.3952245408775821,13.481919367472301,0.52489414575312432
20220606013000,426.55130642589961,14.322718910096425,8.5330646841045146E-002,0,-31.308001308365178,0,2.2319679650850666,1,6.5643695594117997,0,173.24079990318234,1.2206786534098031,3.9187581148008208,0.68943958910269565,1.6744160879248604,0.35815871974903768,0.27464151894554550,54.941959728615245,0.34581948102779980,101.25289061615430,185.12257699949478,221.54444370250181,277.34735409547801,93.244587205946189,92.780000000000001,12.444666666666649,1.0395572416904566,12.952618479410773,0.26104044566471524
20220606020000,425.68704316431905,14.469069631929683,7.2848880613489306E-002,1,-12.091365562134836,1,-1.0478210099226473,1,2.5607385307725647,1,198.81871132951903,1.4819832899598939,3.1631411857259115,0.43638736810337958,0.57601291505895835,0.24436293275479673,0.25373436518510062,112.21534973817700,0.16931729967719358,129.04169816186936,235.92937997865860,282.34721063001803,353.46520316993093,93.279906526909727,93.566666666666663,12.476666666666688,0.92823958387751648,13.069679301791723,0.19499549840113245
20220606023000,425.22651438618215,14.604640461095940,2.7675696975949429E-002,1,-3.7954703261866278,2,10.317810746214311,1,1.9390753330111214,1,139.60370340733039,1.5302043286864249,2.8534258711819716,0.43963654932526219,0.46942467015965111,0.18161157614432621,0.15645738840627024,83.813866804592379,0.22669279827283831,130.34601248515841,1156.0000000000000,2096.0000000000000,5537.0000000000000,93.277381595703119,93.129999999999995,12.689666666666653,1.0051961805698466,13.323623584323514,0.19077803806304286
20220606030000,427.30074537479334,14.650270172462603,3.2163325040479633E-002,0,-12.337909456515531,1,8.7422425714634091,1,2.2606959835944447,0,146.80210279547862,1.7722318947323374,3.4794547222302104,0.42462994223890421,0.35003400937905882,0.23111717963311845,0.16865458864534896,32.295387046385912,0.58831931547097649,157.61520702007152,1477.0000000000000,2721.0000000000000,7393.0000000000000,93.274747768105172,93.733333333333334,12.638333333333321,0.91383698153694237,13.250677628249377,0.22911672458017043
20220606033000,429.07816756031144,13.909251877670489,4.6921290452930864E-002,0,-19.807481186090364,0,4.4697505948854026,2,1.1338350337570640,1,157.90496834069745,2.0341380669723486,4.3660399219734565,0.47418156672562684,0.47935112071139074,0.32350592489218333,0.20342083170484376,35.295520877536411,0.53831193102160502,86.390392887240793,157.94919100051135,189.02484084134150,236.63667022976168,93.285689938802079,93.099999999999994,11.954000000000008,0.96191055138878034,12.458896119859560,0.33806662550178596
20220606040000,426.82805948357679,13.354272818953818,1.5517351554014746E-002,0,-18.569908924600078,0,-1.6574965697113790,2,0.46285592190834701,2,158.71276620613961,1.9884150432941601,3.0481700497637925,0.33414242784767201,0.33419890331315572,0.20070034410407717,0.11695042566994895,7.1527702937390618,2.6563134589448532,402.44748447696281,3381.0000000000000,6037.0000000000000,-9999.,93.273375595052087,90.153333333333336,11.822333333333347,1.3608237027970835,12.394062001546217,0.29416494913147750
20220606043000,431.14326144873439,13.198405428696425,0.25981094732630189,1,-93.061349503641722,1,30.158561308586997,2,38.007145036319010,1,118.87940072158199,0.92896996806570009,3.2347704455712760,0.74785611441219757,1.1225303740438251,0.27466282971763478,0.47812831609919559,97.518972569689268,0.19483388205738292,195.09698567644816,356.69951280872738,426.87821450529287,534.40086934894282,93.261951472873264,92.163333333333327,11.309666666666658,1.0469251755271103,11.706998513115877,0.47067728597392000
20220606050000,436.74790251977612,13.586228146359723,6.5229413827404296E-003,0,-7.0006082616539773,1,-2.9159005311721575,1,1.0242889230032368,2,40.661486902039883,1.3212615895236690,2.0935568721140974,0.30113709684039447,0.18058591891428741,0.13853699199317987,7.5708063813983303E-002,5.1462413168574139,3.6920149736783960,401.93010965374538,3164.0000000000000,5547.0000000000000,-9999.,93.246462672815269,97.900000000000006,10.834000000000003,0.27182184199103404,11.452459812095412,0.32771319887069744
20220606053000,436.30600973823533,13.485244796715863,5.0468771513270611E-003,1,-4.2977417005790386,0,1.9902615506602035,1,1.7752081451667694,0,34.269329152727153,1.2432928601169073,2.3758122459339548,0.35931357908481609,0.17425716587151863,0.14938040653694393,6.6593934906143695E-002,5.7042006335901041,3.3308786314624768,475.66520782604800,3895.0000000000000,6905.0000000000000,-9999.,93.228282490234378,97.416666666666671,10.793333333333351,0.33348029728048462,11.315904954698453,0.28860315105484613
20220606060000,433.41678891598309,13.613905501294232,2.4930259187185281E-002,1,-44.374435322989918,1,-20.132322771841793,2,15.171187862501563,1,50.808482524052323,1.6980661611888346,2.4762651666872406,0.25366330088564742,0.23563167861005821,0.13692477353380311,0.14807741735474597,6.0725480780005041,3.1288348409842630,161.08191217218851,1191.0000000000000,2051.0000000000000,4954.0000000000000,93.196837010850700,97.306666666666672,10.947999999999979,0.35127552744947482,11.736211226569367,0.57362703053044650
20220606063000,428.14868437689569,13.388219361432327,7.9802643354188324E-002,1,-52.763449707560056,2,74.757673977034614,1,21.791909558696823,2,95.011552213967903,1.6516430780197882,2.7339459535197590,0.31219060556835304,0.59462021298070278,0.12671279806029601,0.26515477643152319,29.320591374961523,0.64800875797563728,226.04665186993583,413.28537350017984,494.59703752248379,619.17679995859760,93.191974227430563,92.640000000000001,11.435999999999979,0.99150995479198401,12.285384590149022,0.55003046666713817
20220606070000,432.65694503823539,13.073350237372836,7.3297391184528613E-003,0,-4.4077801514465138,2,5.6595445338596697,1,0.58768532052340239,2,126.56583804940334,1.9624100169944936,2.8836414622824509,0.30218800917010391,0.24719675189067442,0.14660551504720989,8.0376967410951974E-002,9.7753461428115251,1.9436651881603177,806.81845473377098,8046.0000000000000,-9999.,-9999.,93.183697464626732,89.646666666666661,11.571333333333314,1.4073086765387075,12.097118969387566,0.48370702355957379
20220606073000,437.71766167049191,13.127537823419155,2.1865333548141158E-002,1,-21.594490458312670,1,21.165183306257195,1,14.146936525030956,1,106.85976662460568,1.6172852869918675,2.3419849420375640,0.34842675979424581,0.30430849838167917,8.9421025208949761E-002,0.13883939948819440,10.282575609383905,1.8477860724564525,189.98486805822449,1559.0000000000000,2766.0000000000000,7031.0000000000000,93.167277056423629,89.966666666666669,11.577333333333343,1.3643530666494577,12.098323925442230,0.40115794053160703
20220606080000,444.64301464906220,13.262424889811809,1.3963414948139413E-002,1,-20.009284667824105,1,15.264671130531550,1,21.106926546313609,1,103.20524808343212,1.2936003293412406,2.1778367836379346,0.26506985866024285,0.20347946946956155,0.12157433602297706,0.11090988696959525,5.6565634891772349,3.3589298584472549,163.47150282307757,1197.0000000000000,2057.0000000000000,4945.0000000000000,93.154813307725689,92.473333333333329,11.314666666666653,1.0058445951703539,11.748117362128482,0.31261955015760867
20220606083000,447.30550459163663,13.442920548812033,4.3718691932398995E-002,0,-12.319209943740757,0,0.80509413949688480,1,7.5696258808998778,0,119.99570991243326,1.6979243324600433,3.3536487954696859,0.52145331617898028,0.30239039229532572,0.21439240847774457,0.19618098304712003,50.839290644083192,0.37372669365148331,109.58690684649146,989.00000000000000,1802.0000000000000,4802.0000000000000,93.132765357909690,95.496666666666670,11.029999999999973,0.59055247125914545,11.520837865476722,0.19071031669806557
20220606090000,442.33149890108001,13.281166429792227,4.0928143457778655E-002,0,-11.919630753620403,0,-1.1351601711659378,2,3.1927666774710377,0,135.50517430117992,1.7722738967708183,3.1040279552429682,0.44511710456457831,0.39004045878347487,0.24169155709820997,0.18982761178832072,47.595605110704930,0.39919652152350993,125.08555196945039,1149.0000000000000,2103.0000000000000,5654.0000000000000,93.118379562282996,94.293333333333337,11.036333333333346,0.74866861099861814,11.485856126573367,0.15534925893123128
20220606093000,441.88817311544256,13.292403309009256,9.9282944593244854E-003,1,-7.0394016692352581,1,-1.8997668394881322,1,0.69252148743451092,1,142.78473856528055,1.5752458106042038,3.1170632578590149,0.58217658797740368,0.30951466500264802,0.21148683062669474,9.3494926952206001E-002,9.6287499851111278,1.9732571755814174,402.58922552935064,3599.0000000000000,6539.0000000000000,-9999.,93.115143619574653,94.420000000000002,11.028333333333308,0.73166201614410509,11.450797280205620,0.17303820180160684
20220606100000,445.87712290854495,13.596326397492366,1.2369391889715416E-002,1,-7.1387297087652435,0,0.15135969680133871,2,1.6762631915461359,0,140.45992079374861,1.6566019827516136,3.5621553700733344,0.67143157934228892,0.36385154944661513,0.17338440792965173,0.10437693077778325,13.210999155133534,1.4381955351663902,355.98143988390996,3332.0000000000000,6136.0000000000000,-9999.,93.108573780550273,96.243333333333339,11.079666666666640,0.49426486612745979,11.566830631192090,0.21183759321712303
20220606103000,448.59828460948268,13.704073837524456,0.12044781527575855,1,-29.672223419679792,1,-9.6410993465682129,1,16.361433474058792,1,123.88424819699750,1.1791641898576801,2.9490976128226336,0.83989839031025626,0.76354074078772383,0.24956798759455165,0.32573722535561611,96.594835893863348,0.19669788580496017,154.95218773444819,283.30201864413743,339.04015997185752,424.43804831581258,93.093762358506936,97.040000000000006,11.072000000000003,0.38924915187416448,11.470910421583426,0.23730905113759454
20220606110000,447.10844804561435,13.676432359462288,4.6540762517453531E-002,2,-20.942401548154674,1,-3.8112617852328508,2,8.7897088942635673,1,172.27642678359982,1.0173141760326010,4.4668316883921921,1.4240148869493083,0.72410432022468829,0.29031021777017135,0.20241998113907758,32.836999507242822,0.57861559475947821,93.835624053499757,171.56144810712397,205.31523597898129,257.03031185347720,93.073273417751750,98.323333333333338,10.840666666666664,0.21712229781518319,11.346845747205975,0.41960104122179870
20220606113000,440.26458453225820,13.944318348561465,0.16788955592526214,1,-40.756760996127824,0,10.557860567024379,1,13.424141427831398,0,138.26943269576151,1.0994630618760723,7.1192991763728388,1.4274448975135900,1.1405014378319933,0.51949887611635281,0.38473524796226427,115.86618446960763,0.16398227046980915,98.472914327615200,180.03989371608299,215.46176994768180,269.73256835076887,93.078506110677097,97.643333333333331,11.238000000000000,0.31334208935956215,11.759599410825047,0.25417289118661751
20220606120000,436.80727913239048,14.048217755594216,0.29614817249522180,0,-22.639150885665131,0,0.86200608116348476,1,1.4769750810128783,0,133.58365858458933,2.6540602568949860,6.3690857641031160,1.1687231967833915,0.85913404714014707,0.64669987943314833,0.51118782006594699,489.25775895671109,3.8834335587268828E-002,103.74258702809817,189.67453608847222,226.99197614543451,284.16701828631415,93.071485986979170,97.083333333333329,11.435666666666691,0.39291307096656736,11.869914965311693,0.12999214910018675
20220606123000,440.69144535795510,13.919999238209115,2.2671489766879320E-002,1,4.7903939038326131,1,2.9998693075162381,1,-2.4287579373943227,1,351.41862649342772,0.73623336124166161,4.5210506617668225,0.93017546556265351,0.60262988572688747,0.29708363852191866,0.14139307433817608,-48.930818537169706,-0.38830333454501437,49.074019396444193,172.00000000000000,243.00000000000000,418.00000000000000,93.078605257800788,97.133333333333326,11.290666666666652,0.38248504715618081,11.682975445114835,0.18379892718069207
20220606130000,436.95396607050930,14.065789943939039,3.0968780845962815E-002,1,-26.268293082164732,1,-0.82392454288183803,2,8.5227180344439297,1,342.02866693839348,1.2212284097232990,4.7941418891413115,0.87949865558684681,0.45374837399700962,0.30919981370719957,0.16529344841554186,14.260882159018049,1.3323158966000648,75.220797389013342,585.00000000000000,1023.0000000000000,2534.0000000000000,93.117389514105909,96.636666666666670,11.531666666666638,0.45597325433078822,12.080601672702301,0.35162853605285688
20220606133000,429.53853744746203,13.958701314455794,0.10418047264659386,1,-8.7124553620819380,1,-14.285156624824690,2,5.6833911563147153,1,237.68292851625847,0.66432824909734933,1.9778350421857405,0.50464119889666570,0.50428699816143674,0.18799945066230533,0.30352822386068951,266.24438434362867,7.1363007512217136E-002,183.69143211816493,335.84652328945054,401.92251197855620,503.15929113685928,93.122039779730898,91.586666666666673,12.230000000000018,1.1944000610235208,12.674560949537522,0.12430869973334437
20220606140000,428.46915391730943,14.563021245968706,0.13279356917671631,1,32.835990748282036,1,55.634522416868634,1,-11.589287706710962,1,92.675486430759236,7.7892674841422413E-002,2.3066947098899764,0.45818961467832053,0.47511263976378665,0.25183645440960273,0.34280308655454156,-101.76803623290290,-0.18669909239986945,160.24917473769420,292.98660027342760,350.63013070545645,438.94731635831954,93.109112095703125,94.959999999999994,12.322333333333347,0.71986320895406608,12.740651190016081,0.17371503534134783
20220606143000,424.74391462789004,14.662737524553165,6.6980933649838606E-002,1,25.172520571301359,1,67.464986642198127,1,-5.4128836583697799,1,287.08790486197688,0.34107009961792228,2.1942525992319264,0.36848457136764279,0.47794246337246632,0.26073456242166682,0.24369707422083073,-47.696228005622480,-0.39835435199949693,118.62501179723668,216.88435507239046,259.55517998444759,324.93228540242194,93.115334384548618,92.173333333333332,12.881333333333316,1.1596429477981314,13.371063529968353,0.30266295849584945
20220606150000,421.36761602241103,14.656168985931904,4.6383071792487490E-002,1,8.5103555033637068,1,42.553699860154090,1,0.12119960829843551,2,321.21721951146071,4.1497900712029426E-002,2.6414625166188417,0.36315619313163433,0.60504898373305105,0.30884634524215587,0.20323541040017970,-81.820324040929080,-0.23221614217141950,89.590184239717104,163.79943011394766,196.02608288820650,245.40139447483236,93.098020089192701,85.216666666666669,14.076000000000022,2.3676920456271002,14.330440711127437,0.54848197773081386
20220606153000,419.32468339632646,14.157837455392784,8.9487103029655471E-002,1,181.42766057563443,0,161.01268308589042,0,-13.843801931047842,0,58.364565588861879,1.2907613975159726,4.0191258278662199,0.52832063430051535,0.69116090413136111,0.48871448340362711,0.28291361671006487,-10.349925763710308,-1.8357619594354229,80.860014052028475,147.83789466587984,176.92420158990544,221.48810580105339,93.066834972656252,76.047666666666672,15.298666666666691,4.1511677088195755,15.323807755364328,0.56644776341080572
20220606160000,418.81559902803167,13.692157463748115,5.2192437287452896E-002,0,4.3570648298005192,0,124.53880583188248,0,-8.5197800917296789,0,11.456323550429460,1.0762380744402531,3.4472279367181438,0.46163174558838288,0.46317381462120372,0.31422802991493470,0.21597487228123044,-191.72667308497725,-9.9099409040383252E-002,92.764443259973334,169.60298798096596,202.97145940566583,254.09618170633203,93.074024157769088,74.302666666666667,15.140666666666675,4.4085981418847675,15.523913169860862,0.16286560643783210
20220606163000,418.00090660079337,12.861080347306496,3.1585353245620472E-002,1,109.52442135691874,0,262.75814877620121,1,-15.020232720252185,0,55.389398797794129,0.75776008783032245,2.5746197826830683,0.43208837289834923,0.49847467186644429,0.37961770448330506,0.16823247712209624,-3.6042498977393791,-5.2715545644925967,17.738559204152928,55.000000000000000,75.000000000000000,123.00000000000000,93.069271107421869,66.168999999999997,15.971666666666636,6.1215374003614782,16.143040631612109,0.52310723972340212
20220606170000,417.46665224936947,11.681590975853211,5.9161886575648602E-002,1,185.67293341669864,0,179.73780780782909,1,-22.234548587855169,0,83.505925962211990,0.86572123959789260,3.9817383163379332,0.66583447681144303,0.64173478495097458,0.44947725840437264,0.23045757951997581,-5.4640380056571258,-3.4772818161822041,73.377264661639458,134.15704227973362,160.55171542214276,200.99169594890009,93.061482468104089,57.683999999999997,16.614333333333320,7.9769649115769496,16.634205707474280,0.62953237508723647
20220606173000,417.53091975060727,11.113298083295472,6.6336181337967329E-002,0,199.95846029106173,0,358.62523365357640,1,-11.408287525439471,0,57.952160745974069,1.6179423184170234,5.2092054071731564,0.88343983399294124,0.70221982368828550,0.55218133641426226,0.24444502439858184,-6.0531553647172034,-3.1388588025920692,65.243084109308867,119.28516596624529,142.75387780510712,178.71091522061289,93.037741421223956,51.587333333333333,17.586666666666645,9.7058712893208554,17.270319401211282,0.64916624765748954
20220606180000,416.70117675922421,10.322226055187285,7.5929527969614968E-002,1,280.62615827641901,0,289.86065082648270,0,-19.700755705532785,0,45.283058223396011,0.66522479329850470,3.7632441745402048,0.62987318350793009,0.79448958742182396,0.63076828668326901,0.26184393051023980,-5.2993742579621816,-3.5853289605754792,61.971645652233740,113.30393309493034,135.59586968633400,169.74993845605204,93.007010475694457,45.826000000000001,18.290000000000020,11.352316294976497,18.096615271674295,0.68900192337360455
20220606183000,416.00265891982235,11.916606082310768,0.24340153206463711,0,7.1271814480599129,1,76.777346970088047,0,-4.2992983765955222,0,6.2305237953534345,2.1293381161090998,8.4616332105236367,1.0525695972942894,1.0467262729795814,0.63672524185632562,0.46745305645053176,-1187.6157218419062,-1.5998440952375043E-002,97.787568884779617,178.78686366686145,213.96221300710366,267.85530100506486,93.023811103515627,59.326666666666668,16.479666666666674,7.6019149979120701,16.561443320380192,0.59053949652334192
20220606190000,414.14067904970273,12.567779455301627,0.41410518842583338,0,119.68816607821280,0,225.85953197574003,0,-16.511048800981065,0,10.797479101171746,2.0851940139266687,9.6194846377908227,1.1340582342415930,1.2524325608914992,0.71968090530291451,0.61113664927708988,-158.03217028038597,-0.12022868487023600,109.86353749043178,200.86558571064140,240.38480430921555,300.93324989656389,93.006607075737847,57.905333333333331,17.699666666666644,8.4995775442340342,17.748898350185868,0.56939632927739614
20220606193000,413.56090696336668,12.412057557323376,0.30534989240705041,0,22.816056447025154,0,82.954326248107236,0,-9.5666776807727558,0,7.6220346961981988,2.2448254721396950,7.2207937004950615,1.0622166003768063,0.94310053340001343,0.65111118460603457,0.52405450145272292,-522.75811541358939,-3.6345681568171945E-002,105.25238361856226,192.43492578076587,230.29545759374525,288.30258505423006,93.021235452473960,59.962666666666664,16.952666666666687,7.7112816997174694,17.148125788370805,0.25252448958044926
20220606200000,413.22199604514248,12.064808508690707,0.67055380068292847,0,163.33246699883807,0,177.35102156899077,0,-14.259658274682366,0,351.33830812406802,3.2054894680264536,10.203881795042259,1.5789685189557539,1.4424216833185906,0.84177929889427749,0.77724808632299425,-238.23429750564276,-7.9753420053004634E-002,117.47461648843496,214.78106554813542,257.03807961155428,321.78117442555561,93.023130237630212,56.354666666666667,17.485333333333358,8.6943234176754736,17.376350091722315,0.42320217168473828
20220606203000,413.93754248626010,11.578061374796965,0.62272021670254829,0,243.61826219743136,0,158.97116071802208,0,-14.063932106999721,0,0.52136936566441250,3.1583283336815922,8.3243183110066390,1.3612742746297271,1.4368414753321133,0.88073085918973204,0.74939937946325230,-143.15166223877054,-0.13272636658810746,110.04010403996023,201.18840567619208,240.77113735861008,301.41689303045843,93.023315451880876,52.886333333333333,17.839666666666687,9.5972672347899888,17.497893978660898,0.49957570825079001
20220606210000,414.11013078158919,11.441712108276949,0.54465190208104031,0,205.48548893320964,0,123.71893692374519,0,-10.730590729831714,0,358.60950860643038,2.9659165011693513,8.7202201590699921,1.3488871721094982,1.3305282797437141,0.88709288907094186,0.70080841554840889,-138.78616144271768,-0.13690125731910252,103.69529897995862,189.58807845472376,226.88850843942532,284.03748899631529,93.015380441189237,52.410666666666664,17.793666666666638,9.6661203686118071,17.499603557162800,0.44688687637576768
20220606213000,413.82505446482861,11.326299447830088,0.60519211754418856,0,220.55240138280919,0,155.02990522034725,0,-10.940304297837969,0,356.90329493605952,2.8705139626463199,9.7692540094379723,1.4873305334052953,1.1746087371784997,0.79380104665775897,0.73857619978034883,-151.37129505202748,-0.12551917451369862,118.19573698654341,216.09950380826439,258.61591347509852,323.75643519013551,93.030085643663185,52.097666666666669,17.730333333333306,9.6909496083061235,17.426131876627608,0.49553248647517500
20220606220000,414.41301171749433,11.036545799594702,0.52144285706842397,0,186.92429040493286,0,143.12442484721237,0,-10.328797974894670,0,349.85478030383285,3.1489607704977431,9.2357427938639702,1.4234442463177071,1.4209199333359765,0.84903740954526208,0.68510148066271737,-142.57061005003743,-0.13326729817128261,105.46718725021776,192.82765532753666,230.76545455670410,288.89096547998599,93.055742880029797,51.702333333333335,17.444666666666649,9.5964109185687345,17.108116190509918,0.46471412051108041
20220606223000,414.91336523226329,10.584946758845865,0.66827772041839861,0,156.15212458423554,0,91.619089859101550,0,-8.6240359639687494,0,355.17333612440649,3.2577440210814470,9.5040070244549177,1.4164601049880841,1.3275387922403266,0.87156989601774748,0.77484454316116003,-246.90231579647588,-7.6953510697979427E-002,113.96848780116439,208.37074408541332,249.36656203962224,312.17734476088822,93.066450682074645,51.097000000000001,16.972333333333324,9.4305800967848228,16.685702325609043,0.35513962570126878